Home   Weather   Lafayette   Past weeks

Flag for USA Past Weather in Lafayette, Indiana, USA — Yesterday and Last 2 Weeks

Now
22 °F

Overcast.


Feels Like: 14 °F
Forecast: 15 / 26 °F
Wind: 6 mph from West

Location: Purdue University Airport

Current Time: Dec 10, 2016 at 9:51:24 am

Latest Report: Dec 10, 2016 at 8:54 am


Visibility: 10 mi

Pressure: 30.56 "Hg

Humidity: 82%

Dew Point: 17 °F

Location of LafayetteLocation

Past Weather in Lafayette — Graph

°F

Lafayette Temperature Yesterday

Maximum temperature yesterday: 26 °F (at 11:54 am)
Minimum temperature yesterday: 21 °F (at 12:54 am)
Average temperature yesterday: 23 °F

High & Low Weather Summary for the Past Weeks

 TemperatureHumidityPressure
High57 °F (Nov 29, 1:54 pm)100% (Nov 27, 8:54 am)30.58 "Hg (Nov 27, 8:54 am)
Low20 °F (Dec 8, 5:54 am)58% (Nov 28, 3:54 am)29.20 "Hg (Nov 28, 9:01 pm)
Average36 °F82%30.07 "Hg
* Reported Nov 25 7:54 am — Dec 10 7:54 am, Lafayette, Weather by CustomWeather, © 2016

Note: Actual official high and low records may vary slightly from our data, if they occured in-between our weather recording intervals... More about our weather records

Advertising

Lafayette Weather History for the Previous 24 Hours

Scroll right to see more
 ConditionsComfort  
Time TempWeatherWind HumidityBarometerVisibility
7:54 am
Sat, Dec 10
21 °FOvercast.5 mph85%30.56 "Hg10 mi
6:54 am21 °FOvercast.6 mph85%30.57 "Hg10 mi
5:54 am22 °FOvercast.7 mph78%30.57 "Hg10 mi
4:54 am22 °FMostly cloudy.7 mph82%30.56 "Hg10 mi
3:54 am22 °FOvercast.6 mph82%30.56 "Hg10 mi
2:54 am23 °FOvercast.9 mph78%30.57 "Hg10 mi
1:54 am23 °FOvercast.6 mph72%30.55 "Hg10 mi
12:54 am23 °FOvercast.5 mph72%30.55 "Hg10 mi
11:54 pm
Fri, Dec 9
23 °FOvercast.7 mph74%30.56 "Hg10 mi
10:54 pm23 °FOvercast.5 mph78%30.56 "Hg10 mi
9:54 pm23 °FOvercast.5 mph78%30.55 "Hg10 mi
8:54 pm23 °FOvercast.5 mph74%30.56 "Hg9 mi
7:54 pm24 °FOvercast.6 mph71%30.57 "Hg10 mi
6:54 pm24 °FOvercast.6 mph71%30.57 "Hg10 mi
5:54 pm25 °FOvercast.7 mph69%30.56 "Hg10 mi
4:54 pm25 °FOvercast.10 mph66%30.55 "Hg10 mi
3:54 pm25 °FOvercast.9 mph66%30.55 "Hg10 mi
2:54 pm26 °FOvercast.10 mph66%30.55 "Hg10 mi
1:54 pm26 °FOvercast.8 mph69%30.53 "Hg10 mi
12:54 pm26 °FOvercast.9 mph71%30.55 "Hg10 mi
11:54 am26 °FLight snow. Mostly cloudy.10 mph74%30.57 "Hg9 mi
10:54 am24 °FMostly cloudy.12 mph77%30.58 "Hg10 mi
9:54 am23 °FLight snow. More clouds than sun.13 mph81%30.58 "Hg8 mi
Weather by CustomWeather, © 2016

See weather overviewHow to use our weather pages